Time,TemperatureF,DewpointF,PressureIn,WindDirection,WindDirectionDegrees,WindSpeedMPH,WindSpeedGustMPH,Humidity,HourlyPrecipIn,Conditions,Clouds,dailyrainin,SoftwareType,DateUTC
2013-03-10 00:02:00,45.0,40.0,30.27,WNW,290,0.0,2.0,84,0.00,,,0.00,,2013-03-10 05:02:00,
2013-03-10 00:11:00,45.0,40.0,30.27,WNW,290,0.0,2.0,84,0.00,,,0.00,,2013-03-10 05:11:00,
2013-03-10 00:22:00,45.0,41.0,30.27,West,275,0.0,2.0,85,0.00,,,0.00,,2013-03-10 05:22:00,
2013-03-10 00:32:00,45.0,41.0,30.27,West,275,0.0,1.0,85,0.00,,,0.00,,2013-03-10 05:32:00,
2013-03-10 00:42:00,45.0,41.0,30.27,West,275,0.0,2.0,85,0.00,,,0.00,,2013-03-10 05:42:00,
2013-03-10 00:52:00,45.0,41.0,30.27,West,275,0.0,2.0,85,0.00,,,0.00,,2013-03-10 05:52:00,
2013-03-10 01:02:00,44.0,40.0,30.27,West,275,0.0,1.0,85,0.00,,,0.00,,2013-03-10 06:02:00,
2013-03-10 01:11:00,44.0,40.0,30.27,West,275,0.0,1.0,86,0.00,,,0.00,,2013-03-10 06:11:00,
2013-03-10 01:22:00,44.0,40.0,30.27,West,275,0.0,1.0,86,0.00,,,0.00,,2013-03-10 06:22:00,
2013-03-10 01:32:00,43.0,39.0,30.27,West,275,0.0,1.0,86,0.00,,,0.00,,2013-03-10 06:32:00,
2013-03-10 01:42:00,43.0,39.0,30.26,West,275,0.0,1.0,87,0.00,,,0.00,,2013-03-10 06:42:00,
2013-03-10 01:51:00,43.0,39.0,30.26,West,275,0.0,1.0,87,0.00,,,0.00,,2013-03-10 06:51:00,
2013-03-10 03:02:00,43.0,39.0,30.26,West,275,0.0,1.0,87,0.00,,,0.00,,2013-03-10 07:02:00,
2013-03-10 03:11:00,42.0,39.0,30.26,West,275,0.0,1.0,88,0.00,,,0.00,,2013-03-10 07:11:00,
2013-03-10 03:21:00,42.0,39.0,30.26,West,275,0.0,1.0,88,0.00,,,0.00,,2013-03-10 07:21:00,
2013-03-10 03:32:00,42.0,39.0,30.25,West,275,0.0,2.0,88,0.00,,,0.00,,2013-03-10 07:32:00,
2013-03-10 03:42:00,42.0,39.0,30.24,West,275,0.0,2.0,89,0.00,,,0.00,,2013-03-10 07:42:00,
2013-03-10 03:52:00,42.0,39.0,30.24,West,275,0.0,2.0,89,0.00,,,0.00,,2013-03-10 07:52:00,
2013-03-10 04:01:00,41.0,38.0,30.24,West,275,0.0,1.0,89,0.00,,,0.00,,2013-03-10 08:01:00,
2013-03-10 04:11:00,41.0,38.0,30.24,West,275,0.0,1.0,89,0.00,,,0.00,,2013-03-10 08:11:00,
2013-03-10 04:21:00,41.0,38.0,30.24,West,275,0.0,1.0,89,0.00,,,0.00,,2013-03-10 08:21:00,
2013-03-10 04:32:00,41.0,38.0,30.23,West,275,0.0,1.0,89,0.00,,,0.00,,2013-03-10 08:32:00,
2013-03-10 04:42:00,41.0,38.0,30.23,West,275,0.0,0.0,90,0.00,,,0.00,,2013-03-10 08:42:00,
2013-03-10 04:51:00,41.0,38.0,30.23,West,275,0.0,0.0,90,0.00,,,0.00,,2013-03-10 08:51:00,
2013-03-10 05:02:00,40.0,37.0,30.22,West,275,0.0,0.0,90,0.00,,,0.00,,2013-03-10 09:02:00,
2013-03-10 05:11:00,40.0,37.0,30.22,West,275,0.0,1.0,90,0.00,,,0.00,,2013-03-10 09:11:00,
2013-03-10 05:21:00,40.0,37.0,30.22,West,275,0.0,1.0,90,0.00,,,0.00,,2013-03-10 09:21:00,
2013-03-10 05:31:00,41.0,38.0,30.23,West,275,0.0,2.0,90,0.00,,,0.00,,2013-03-10 09:31:00,
2013-03-10 05:41:00,42.0,39.0,30.23,WNW,298,0.0,3.0,90,0.00,,,0.00,,2013-03-10 09:41:00,
2013-03-10 05:51:00,42.0,39.0,30.23,WNW,298,0.0,3.0,90,0.00,,,0.00,,2013-03-10 09:51:00,
2013-03-10 06:02:00,43.0,40.0,30.24,NNW,328,1.0,4.0,89,0.00,,,0.00,,2013-03-10 10:02:00,
2013-03-10 06:11:00,43.0,40.0,30.24,NNW,328,1.0,4.0,89,0.00,,,0.00,,2013-03-10 10:11:00,
2013-03-10 06:21:00,43.0,40.0,30.24,WNW,301,1.0,4.0,88,0.00,,,0.00,,2013-03-10 10:21:00,
2013-03-10 06:32:00,43.0,39.0,30.25,NNW,342,1.0,6.0,87,0.00,,,0.00,,2013-03-10 10:32:00,
2013-03-10 06:42:00,43.0,39.0,30.25,NW,311,3.0,5.0,87,0.00,,,0.00,,2013-03-10 10:42:00,
2013-03-10 06:52:00,43.0,39.0,30.25,NW,311,3.0,5.0,87,0.00,,,0.00,,2013-03-10 10:52:00,
2013-03-10 07:01:00,43.0,39.0,30.24,NW,304,1.0,4.0,87,0.00,,,0.00,,2013-03-10 11:01:00,
2013-03-10 07:12:00,43.0,39.0,30.25,NNW,331,0.0,2.0,87,0.00,,,0.00,,2013-03-10 11:12:00,
2013-03-10 07:21:00,43.0,39.0,30.25,NNW,331,0.0,2.0,87,0.00,,,0.00,,2013-03-10 11:21:00,
2013-03-10 07:32:00,42.0,39.0,30.25,NW,319,1.0,3.0,88,0.00,,,0.00,,2013-03-10 11:32:00,
2013-03-10 07:42:00,42.0,39.0,30.25,NW,319,1.0,3.0,88,0.00,,,0.00,,2013-03-10 11:42:00,
2013-03-10 07:52:00,42.0,39.0,30.25,NW,315,0.0,2.0,88,0.00,,,0.00,,2013-03-10 11:52:00,
2013-03-10 08:01:00,42.0,39.0,30.26,NW,315,0.0,0.0,88,0.00,,,0.00,,2013-03-10 12:01:00,
2013-03-10 08:11:00,42.0,39.0,30.26,NW,315,0.0,0.0,88,0.00,,,0.00,,2013-03-10 12:11:00,
2013-03-10 08:21:00,42.0,39.0,30.26,NW,315,0.0,0.0,89,0.00,,,0.00,,2013-03-10 12:21:00,
2013-03-10 08:31:00,42.0,39.0,30.26,NW,315,0.0,0.0,89,0.00,,,0.00,,2013-03-10 12:31:00,
2013-03-10 08:42:00,42.0,39.0,30.26,NW,315,0.0,0.0,89,0.00,,,0.00,,2013-03-10 12:42:00,
2013-03-10 08:51:00,43.0,40.0,30.27,NNW,333,1.0,2.0,90,0.00,,,0.00,,2013-03-10 12:51:00,
2013-03-10 09:01:00,45.0,42.0,30.27,NNW,348,1.0,3.0,89,0.00,,,0.00,,2013-03-10 13:01:00,
2013-03-10 09:11:00,45.0,42.0,30.27,NNW,348,1.0,3.0,89,0.00,,,0.00,,2013-03-10 13:11:00,
2013-03-10 09:21:00,47.0,43.0,30.27,NNW,348,0.0,2.0,87,0.00,,,0.00,,2013-03-10 13:21:00,
2013-03-10 09:32:00,49.0,44.0,30.27,NE,36,1.0,3.0,83,0.00,,,0.00,,2013-03-10 13:32:00,
2013-03-10 09:41:00,49.0,44.0,30.27,NE,36,1.0,3.0,83,0.00,,,0.00,,2013-03-10 13:41:00,
2013-03-10 09:52:00,51.0,44.0,30.28,ENE,65,0.0,3.0,78,0.00,,,0.00,,2013-03-10 13:52:00,
2013-03-10 10:02:00,53.0,46.0,30.29,ENE,63,0.0,4.0,77,0.00,,,0.00,,2013-03-10 14:02:00,
2013-03-10 10:11:00,53.0,46.0,30.29,ENE,63,0.0,4.0,77,0.00,,,0.00,,2013-03-10 14:11:00,
2013-03-10 10:21:00,54.0,47.0,30.29,SE,146,0.0,4.0,76,0.00,,,0.00,,2013-03-10 14:21:00,
2013-03-10 10:32:00,55.0,48.0,30.30,ESE,119,0.0,2.0,76,0.00,,,0.00,,2013-03-10 14:32:00,
2013-03-10 10:42:00,55.0,48.0,30.30,ESE,119,0.0,2.0,76,0.00,,,0.00,,2013-03-10 14:42:00,
2013-03-10 10:51:00,55.0,47.0,30.30,NE,49,1.0,3.0,75,0.00,,,0.00,,2013-03-10 14:51:00,
2013-03-10 11:01:00,55.0,47.0,30.30,NE,53,1.0,4.0,75,0.00,,,0.00,,2013-03-10 15:01:00,
2013-03-10 11:11:00,55.0,47.0,30.30,NE,53,1.0,4.0,75,0.00,,,0.00,,2013-03-10 15:11:00,
2013-03-10 11:21:00,55.0,48.0,30.29,SSE,162,1.0,5.0,76,0.00,,,0.00,,2013-03-10 15:21:00,
2013-03-10 11:32:00,56.0,48.0,30.29,ESE,114,1.0,5.0,74,0.00,,,0.00,,2013-03-10 15:32:00,
2013-03-10 11:42:00,56.0,48.0,30.29,ESE,114,1.0,5.0,74,0.00,,,0.00,,2013-03-10 15:42:00,
2013-03-10 11:52:00,56.0,47.0,30.29,NE,42,1.0,6.0,73,0.00,,,0.00,,2013-03-10 15:52:00,
2013-03-10 12:02:00,57.0,49.0,30.29,East,94,1.0,4.0,74,0.00,,,0.00,,2013-03-10 16:02:00,
2013-03-10 12:12:00,57.0,49.0,30.29,East,94,1.0,4.0,74,0.00,,,0.00,,2013-03-10 16:12:00,
2013-03-10 12:21:00,58.0,49.0,30.29,NNE,27,0.0,4.0,73,0.00,,,0.00,,2013-03-10 16:21:00,
2013-03-10 12:32:00,58.0,49.0,30.29,East,99,0.0,5.0,73,0.00,,,0.00,,2013-03-10 16:32:00,
2013-03-10 12:41:00,58.0,49.0,30.29,East,99,0.0,5.0,73,0.00,,,0.00,,2013-03-10 16:41:00,
2013-03-10 12:51:00,58.0,49.0,30.28,NE,46,1.0,5.0,71,0.00,,,0.00,,2013-03-10 16:51:00,
2013-03-10 13:01:00,58.0,47.0,30.29,ESE,109,0.0,4.0,67,0.00,,,0.00,,2013-03-10 17:01:00,
2013-03-10 13:11:00,58.0,47.0,30.29,ESE,109,0.0,4.0,67,0.00,,,0.00,,2013-03-10 17:11:00,
2013-03-10 13:21:00,58.0,46.0,30.29,ESE,102,0.0,4.0,65,0.00,,,0.00,,2013-03-10 17:21:00,
2013-03-10 13:32:00,57.0,47.0,30.28,SSW,211,0.0,6.0,68,0.00,,,0.00,,2013-03-10 17:32:00,
2013-03-10 13:41:00,57.0,47.0,30.28,SSW,211,0.0,6.0,68,0.00,,,0.00,,2013-03-10 17:41:00,
2013-03-10 13:51:00,57.0,47.0,30.28,ESE,106,1.0,4.0,68,0.00,,,0.00,,2013-03-10 17:51:00,
2013-03-10 14:01:00,58.0,48.0,30.27,ESE,121,1.0,4.0,69,0.00,,,0.00,,2013-03-10 18:01:00,
2013-03-10 14:11:00,58.0,47.0,30.27,ENE,61,0.0,5.0,68,0.00,,,0.00,,2013-03-10 18:11:00,
2013-03-10 14:22:00,58.0,47.0,30.27,ENE,61,0.0,5.0,68,0.00,,,0.00,,2013-03-10 18:22:00,
2013-03-10 14:32:00,58.0,47.0,30.26,ENE,67,1.0,4.0,67,0.00,,,0.00,,2013-03-10 18:32:00,
2013-03-10 14:42:00,58.0,47.0,30.26,ENE,67,1.0,4.0,67,0.00,,,0.00,,2013-03-10 18:42:00,
2013-03-10 14:52:00,59.0,48.0,30.25,East,96,1.0,7.0,66,0.00,,,0.00,,2013-03-10 18:52:00,
2013-03-10 15:01:00,59.0,48.0,30.25,ESE,109,0.0,4.0,67,0.00,,,0.00,,2013-03-10 19:01:00,
2013-03-10 15:11:00,59.0,48.0,30.25,ESE,109,0.0,4.0,67,0.00,,,0.00,,2013-03-10 19:11:00,
2013-03-10 15:21:00,58.0,47.0,30.25,ESE,105,1.0,4.0,67,0.00,,,0.00,,2013-03-10 19:21:00,
2013-03-10 15:32:00,58.0,47.0,30.24,ESE,107,1.0,6.0,68,0.00,,,0.00,,2013-03-10 19:32:00,
2013-03-10 15:42:00,58.0,47.0,30.24,ESE,107,1.0,6.0,68,0.00,,,0.00,,2013-03-10 19:42:00,
2013-03-10 15:52:00,58.0,45.0,30.24,East,86,1.0,5.0,63,0.00,,,0.00,,2013-03-10 19:52:00,
2013-03-10 16:02:00,58.0,45.0,30.24,SE,136,0.0,5.0,62,0.00,,,0.00,,2013-03-10 20:02:00,
2013-03-10 16:12:00,58.0,45.0,30.24,SE,136,0.0,5.0,62,0.00,,,0.00,,2013-03-10 20:12:00,
2013-03-10 16:22:00,58.0,45.0,30.24,East,96,2.0,6.0,62,0.00,,,0.00,,2013-03-10 20:22:00,
2013-03-10 16:32:00,57.0,45.0,30.24,ESE,112,2.0,4.0,65,0.00,,,0.00,,2013-03-10 20:32:00,
2013-03-10 16:43:00,57.0,45.0,30.24,ESE,112,2.0,4.0,65,0.00,,,0.00,,2013-03-10 20:43:00,
2013-03-10 16:52:00,57.0,46.0,30.23,ESE,109,2.0,7.0,67,0.00,,,0.00,,2013-03-10 20:52:00,
2013-03-10 17:02:00,57.0,47.0,30.22,ESE,113,1.0,5.0,68,0.00,,,0.00,,2013-03-10 21:02:00,
2013-03-10 17:12:00,57.0,47.0,30.22,ESE,113,1.0,5.0,68,0.00,,,0.00,,2013-03-10 21:12:00,
2013-03-10 17:23:00,57.0,46.0,30.22,ESE,118,0.0,4.0,67,0.00,,,0.00,,2013-03-10 21:23:00,
2013-03-10 17:32:00,58.0,47.0,30.23,SSE,167,0.0,3.0,67,0.00,,,0.00,,2013-03-10 21:32:00,
2013-03-10 17:42:00,58.0,47.0,30.23,SSE,167,0.0,3.0,67,0.00,,,0.00,,2013-03-10 21:42:00,
2013-03-10 17:52:00,58.0,47.0,30.23,SSE,165,0.0,2.0,67,0.00,,,0.00,,2013-03-10 21:52:00,
2013-03-10 18:03:00,56.0,46.0,30.23,ESE,104,0.0,3.0,69,0.00,,,0.00,,2013-03-10 22:03:00,
2013-03-10 18:12:00,56.0,46.0,30.23,ESE,104,0.0,3.0,69,0.00,,,0.00,,2013-03-10 22:12:00,
2013-03-10 18:22:00,56.0,46.0,30.23,ESE,113,1.0,3.0,70,0.00,,,0.00,,2013-03-10 22:22:00,
2013-03-10 18:32:00,56.0,47.0,30.22,ESE,113,0.0,2.0,71,0.00,,,0.00,,2013-03-10 22:32:00,
2013-03-10 18:43:00,56.0,47.0,30.22,ESE,113,0.0,2.0,71,0.00,,,0.00,,2013-03-10 22:43:00,
2013-03-10 18:52:00,56.0,46.0,30.22,ESE,113,0.0,2.0,70,0.00,,,0.00,,2013-03-10 22:52:00,
2013-03-10 19:03:00,55.0,46.0,30.23,ESE,113,0.0,2.0,72,0.00,,,0.00,,2013-03-10 23:03:00,
2013-03-10 19:12:00,55.0,47.0,30.23,ESE,113,0.0,1.0,73,0.00,,,0.00,,2013-03-10 23:12:00,
2013-03-10 19:23:00,55.0,47.0,30.23,ESE,113,0.0,1.0,73,0.00,,,0.00,,2013-03-10 23:23:00,
2013-03-10 19:33:00,54.0,47.0,30.23,ESE,113,0.0,3.0,76,0.00,,,0.00,,2013-03-10 23:33:00,
2013-03-10 19:42:00,54.0,47.0,30.23,ESE,113,0.0,3.0,76,0.00,,,0.00,,2013-03-10 23:42:00,
2013-03-10 19:52:00,53.0,46.0,30.22,ESE,113,0.0,1.0,77,0.00,,,0.00,,2013-03-10 23:52:00,
2013-03-10 20:03:00,52.0,45.0,30.23,ESE,113,0.0,0.0,78,0.00,,,0.00,,2013-03-11 00:03:00,
2013-03-10 20:12:00,52.0,45.0,30.23,ESE,113,0.0,0.0,78,0.00,,,0.00,,2013-03-11 00:12:00,
2013-03-10 20:23:00,52.0,46.0,30.22,ESE,113,0.0,1.0,80,0.00,,,0.00,,2013-03-11 00:23:00,
2013-03-10 20:33:00,51.0,45.0,30.22,ESE,113,0.0,0.0,81,0.00,,,0.00,,2013-03-11 00:33:00,
2013-03-10 20:43:00,51.0,45.0,30.22,ESE,113,0.0,0.0,81,0.00,,,0.00,,2013-03-11 00:43:00,
2013-03-10 20:52:00,50.0,45.0,30.23,ESE,113,0.0,0.0,83,0.00,,,0.00,,2013-03-11 00:52:00,
2013-03-10 21:03:00,50.0,45.0,30.22,ESE,113,0.0,0.0,84,0.00,,,0.00,,2013-03-11 01:03:00,
2013-03-10 21:13:00,50.0,45.0,30.22,ESE,113,0.0,0.0,84,0.00,,,0.00,,2013-03-11 01:13:00,
2013-03-10 21:23:00,50.0,46.0,30.22,ESE,113,0.0,1.0,86,0.00,,,0.00,,2013-03-11 01:23:00,
2013-03-10 21:32:00,50.0,46.0,30.22,ESE,113,0.0,2.0,87,0.00,,,0.00,,2013-03-11 01:32:00,
2013-03-10 21:42:00,50.0,46.0,30.22,ESE,113,0.0,2.0,87,0.00,,,0.00,,2013-03-11 01:42:00,
2013-03-10 21:52:00,50.0,47.0,30.22,ESE,113,0.0,2.0,89,0.00,,,0.00,,2013-03-11 01:52:00,
2013-03-10 22:02:00,51.0,48.0,30.23,ESE,113,0.0,1.0,89,0.00,,,0.00,,2013-03-11 02:02:00,
2013-03-10 22:12:00,51.0,48.0,30.23,ESE,113,0.0,1.0,89,0.00,,,0.00,,2013-03-11 02:12:00,
2013-03-10 22:23:00,51.0,48.0,30.23,ESE,113,0.0,2.0,89,0.00,,,0.00,,2013-03-11 02:23:00,
2013-03-10 22:32:00,50.0,47.0,30.23,ENE,71,0.0,1.0,90,0.00,,,0.00,,2013-03-11 02:32:00,
2013-03-10 22:42:00,50.0,47.0,30.23,ENE,71,0.0,1.0,90,0.00,,,0.00,,2013-03-11 02:42:00,
2013-03-10 22:52:00,50.0,47.0,30.24,ENE,71,0.0,0.0,90,0.00,,,0.00,,2013-03-11 02:52:00,
2013-03-10 23:02:00,50.0,47.0,30.24,ENE,71,0.0,0.0,90,0.00,,,0.00,,2013-03-11 03:02:00,
2013-03-10 23:12:00,50.0,47.0,30.24,ENE,71,0.0,0.0,90,0.00,,,0.00,,2013-03-11 03:12:00,
2013-03-10 23:22:00,50.0,47.0,30.24,ENE,71,0.0,1.0,90,0.00,,,0.00,,2013-03-11 03:22:00,
2013-03-10 23:32:00,49.0,46.0,30.24,ENE,71,0.0,1.0,90,0.00,,,0.00,,2013-03-11 03:32:00,
2013-03-10 23:42:00,49.0,46.0,30.24,ENE,71,0.0,1.0,90,0.00,,,0.00,,2013-03-11 03:42:00,
2013-03-10 23:52:00,48.0,45.0,30.23,ENE,71,0.0,1.0,90,0.00,,,0.00,,2013-03-11 03:52:00,